This demonstration page uses our WeatherBlox Daily Observations layout. Learn more.

Left ArrowRight Arrow

40.92945, -100.16068

Hourly Observations for March 29, 2021

Temp ( °F °C ) Dew Point ( °F °C ) Humidity (%) Winds ( mph kmh ) Pressure ( in mb ) Visibility ( mi km ) Precip ( " mm )
12:15 am 00:15 Clear 52 11.2 30 -1.2 42 42 SSW 8 13 29.87 1012 10 16 N/A
12:35 am 00:35 Clear 52 11.1 29 -1.5 42 42 SSW 8 13 29.86 1011 10 16 N/A
12:55 am 00:55 Clear 52 11.3 29 -1.9 40 40 SSW 9 15 29.85 1011 10 16 N/A
1:15 am 01:15 Clear 52 11.1 29 -1.9 41 41 SSW 12 19 29.84 1011 10 16 N/A
1:35 am 01:35 Clear 53 11.5 28 -2.2 39 39 SSW 12 19 29.83 1010 10 16 N/A
1:55 am 01:55 Clear 51 10.7 28 -2.2 41 41 SSW 12 19 29.83 1010 10 16 N/A
2:15 am 02:15 Clear 52 11 28 -2.4 39 39 SSW 12 19 29.82 1010 10 16 N/A
2:35 am 02:35 Clear 53 11.4 27 -3 37 37 SSW 14 22 29.80 1009 10 16 N/A
2:55 am 02:55 Clear 51 10.7 27 -2.7 39 39 SSW 12 19 29.79 1009 10 16 N/A
3:15 am 03:15 Clear 50 10.2 28 -2.1 42 42 SSW 14 22 29.79 1009 10 16 N/A
3:35 am 03:35 Clear 50 10 29 -1.8 44 44 SSW 12 19 29.78 1009 10 16 N/A
3:55 am 03:55 Clear 50 10 29 -1.7 44 44 SSW 12 19 29.77 1008 10 16 N/A
4:15 am 04:15 Clear 49 9.4 29 -1.5 47 47 SSW 10 17 29.77 1008 10 16 N/A
4:35 am 04:35 Clear 45 7.2 31 -0.6 58 58 SE 6 9 29.79 1009 10 16 N/A
4:55 am 04:55 Clear 44 6.6 32 undefined 63 63 S 7 11 29.78 1009 10 16 N/A
5:15 am 05:15 Clear 44 6.7 32 undefined 63 63 N N/A 29.77 1008 10 16 N/A
5:35 am 05:35 Clear 44 6.9 32 undefined 62 62 S 9 15 29.76 1008 10 16 N/A
5:55 am 05:55 Clear 44 6.7 32 0.2 64 64 S 6 9 29.74 1007 10 16 N/A
6:15 am 06:15 Clear 42 5.8 32 0.1 67 67 SSE 6 9 29.75 1007 10 16 N/A
6:35 am 06:35 Clear 42 5.7 32 0.1 68 68 S 8 13 29.74 1007 10 16 N/A
6:55 am 06:55 Clear 42 5.4 33 0.5 71 71 S 8 13 29.74 1007 10 16 N/A
7:15 am 07:15 Clear 42 5.3 32 0.1 69 69 SSW 5 7 29.73 1007 10 16 N/A
7:35 am 07:35 Sunny 38 3.5 32 undefined 78 78 N 3 6 29.75 1008 10 16 N/A
7:55 am 07:55 Sunny 39 3.9 32 0.1 77 77 N N/A 29.75 1007 10 16 N/A
8:15 am 08:15 Sunny 40 4.5 33 0.4 75 75 N N/A 29.72 1007 7 11 N/A
8:35 am 08:35 Sunny 43 6.2 35 1.5 72 72 SSE 6 9 29.72 1006 7 11 N/A
8:55 am 08:55 Sunny 46 7.5 35 1.5 66 66 S 8 13 29.68 1005 10 16 N/A
9:15 am 09:15 Sunny 46 7.8 35 1.7 66 66 S 8 13 29.68 1005 10 16 N/A
9:35 am 09:35 Sunny 47 8.6 36 2.1 64 64 SSE 6 9 29.65 1004 10 16 N/A
9:55 am 09:55 Sunny 49 9.5 35 1.8 59 59 SSE 6 9 29.64 1004 10 16 N/A
10:15 am 10:15 Sunny 51 10.7 36 2.4 57 57 S 9 15 29.61 1003 10 16 N/A
10:35 am 10:35 Sunny 53 11.8 37 2.8 54 54 S 9 15 29.60 1003 10 16 N/A
10:55 am 10:55 Sunny 55 12.8 37 2.7 51 51 SW 7 11 29.60 1002 10 16 N/A
11:15 am 11:15 Sunny 56 13.6 37 2.7 48 48 SSW 7 11 29.58 1002 10 16 N/A
11:35 am 11:35 Sunny 59 15 37 2.9 44 44 S 7 11 29.55 1001 10 16 N/A
11:55 am 11:55 Sunny 62 16.4 37 2.7 40 40 S 6 9 29.52 1000 10 16 N/A
12:15 pm 12:15 Sunny 64 17.7 37 2.9 37 37 SSE 6 9 29.49 999 10 16 N/A
12:35 pm 12:35 Sunny 66 19 38 3.6 36 36 S 10 17 29.47 998 10 16 N/A
12:55 pm 12:55 Sunny 69 20.3 41 5.2 37 37 SSE 10 17 29.44 997 10 16 N/A
1:15 pm 13:15 Sunny 70 20.9 40 4.3 34 34 S 9 15 29.43 996 10 16 N/A
1:35 pm 13:35 Sunny 71 21.5 41 4.9 34 34 S 12 19 29.42 996 10 16 N/A
1:55 pm 13:55 Sunny 71 21.9 40 4.6 32 32 SSW 13 20 29.41 996 10 16 N/A
2:15 pm 14:15 Sunny 73 22.5 38 3.1 28 28 S 9 15 29.39 995 10 16 N/A
2:35 pm 14:35 Sunny 74 23.2 38 3.2 27 27 S 7 11 29.38 995 10 16 N/A
2:55 pm 14:55 Sunny 75 23.9 37 2.7 25 25 S 8 13 29.36 994 10 16 N/A
3:15 pm 15:15 Sunny 76 24.5 29 -1.5 18 18 S 9 15 29.35 994 10 16 N/A
3:35 pm 15:35 Sunny 77 24.8 33 0.6 20 20 S 15 24 29.33 993 10 16 N/A
3:55 pm 15:55 Sunny 76 24.7 31 -0.4 19 19 S 10 17 29.32 993 10 16 N/A
4:15 pm 16:15 Sunny 77 25.2 25 -3.8 14 14 SW 9 15 29.32 993 10 16 N/A
4:35 pm 16:35 Sunny 78 25.6 29 -1.5 17 17 WSW 10 17 29.30 992 10 16 N/A
4:55 pm 16:55 Sunny 79 25.9 29 -1.6 16 16 SW 12 19 29.29 992 10 16 N/A
5:15 pm 17:15 Sunny 77 25.1 28 -2.2 16 16 WSW 9 15 29.28 992 10 16 N/A
5:35 pm 17:35 Sunny 77 25.1 29 -1.7 17 17 WSW 7 11 29.28 992 10 16 N/A
5:55 pm 17:55 Sunny 78 25.5 26 -3.5 14 14 WSW 3 6 29.28 991 10 16 N/A
6:15 pm 18:15 Sunny 78 25.7 27 -3 15 15 W 3 6 29.28 991 10 16 N/A
6:35 pm 18:35 Sunny 78 25.5 38 3.1 23 23 N N/A 29.27 991 10 16 N/A
6:58 pm 18:58 Sunny 77 25 32 undefined 19 19 N N/A 29.26 991 10 16 N/A
7:15 pm 19:15 Sunny 76 24.5 32 -0.1 20 20 E 3 6 29.27 991 10 16 N/A
7:30 pm 19:30 Sunny 73 22.9 40 4.5 30 30 ESE 7 11 29.28 992 10 16 N/A
7:55 pm 19:55 Sunny 68 19.8 44 6.4 42 42 E 8 13 29.32 993 10 16 N/A
8:15 pm 20:15 Clear 65 18.4 44 6.7 47 47 NE 8 13 29.33 993 10 16 N/A
8:35 pm 20:35 Clear 59 14.9 36 2.1 42 42 N 40 65 29.45 997 10 16 N/A
8:55 pm 20:55 Clear 55 12.6 33 0.5 44 44 N 39 63 29.52 1000 10 16 N/A
9:15 pm 21:15 Clear 52 11.3 31 -0.6 44 44 N 26 43 29.56 1001 10 16 N/A
9:35 pm 21:35 Clear 51 10.4 29 -1.6 43 43 N 36 57 29.59 1002 10 16 N/A
9:55 pm 21:55 Clear 49 9.6 28 -2.5 43 43 N 22 35 29.61 1003 10 16 N/A
10:15 pm 22:15 Clear 47 8.6 26 -3.1 44 44 N 31 50 29.64 1004 10 16 N/A
10:35 pm 22:35 Clear 47 8.2 26 -3.5 44 44 N 32 52 29.66 1004 10 16 N/A
10:55 pm 22:55 Clear 46 7.8 25 -4.1 43 43 N 23 37 29.68 1005 10 16 N/A
11:15 pm 23:15 Clear 46 7.6 21 -6.3 37 37 N 26 43 29.70 1006 10 16 N/A
11:35 pm 23:35 Clear 45 7.2 21 -6.3 38 38 N 24 39 29.72 1006 10 16 N/A

Powered by AerisWeather